Location: Mannheim
(49.4880°N, 8.4650°E)
Time: 06:28:38
(UTC+02:00)

ACS3 Solar Sail - Pass Details

Date: 22 September 2024
Orbit: 963 x 1036 km, 97.4° (Epoch: 04 October)

Event Time Altitude Azimuth Distance (km) Brightness Sun altitude
Exits shadow 20:15:03 - 125° (SE) 3,022 3.8 -9.2°
Reaches altitude 10° 20:15:37 10° 123° (ESE) 2,837 3.7 -9.3°
Maximum altitude 20:21:13 33° 62° (ENE) 1,673 2.7 -10.2°
Drops below altitude 10° 20:26:48 10° 2° (N) 2,839 4.4 -11.1°
Sets 20:29:32 0° 353° (N) 3,788 5.2 -11.5°
